Wind_Speed
25 25 23 22 19 15 18 16 14 14 15 12 11 12 9 6 4 4 7 9 9 11 14 14 14 11 9 8 9 10 10 9 9 9 10 13 16 18
26 27 24 23 20 13 13 12 10 12 13 11 11 12 8 7 3 5 8 10 14 16 16 15 12 11 9 8 7 8 8 7 8 9 12 14 17 19
28 28 28 25 23 20 18 15 14 15 13 9 12 9 8 8 7 5 9 13 14 17 19 18 10 7 6 7 7 8 8 8 8 11 14 16 18 20
28 29 30 29 26 24 22 18 14 14 11 7 8 6 12 13 9 6 8 13 16 18 19 20 13 9 8 8 9 10 9 10 11 13 14 17 19 21
26 27 30 31 28 26 24 18 13 11 11 7 7 9 14 16 10 10 10 11 16 17 18 18 13 9 10 11 11 10 10 11 13 14 15 17 19 21
26 23 23 24 24 23 21 19 16 14 14 12 8 12 12 11 11 12 14 12 15 17 19 20 16 10 10 12 12 11 11 12 13 13 14 17 19 21
25 25 23 22 22 21 20 19 18 17 16 13 13 13 10 8 11 12 15 18 19 20 23 23 20 14 11 12 12 11 12 13 13 14 15 17 20 22
25 25 25 24 24 23 21 21 21 21 20 17 17 15 13 14 12 12 16 17 23 24 24 23 23 17 13 12 12 13 13 14 15 15 17 20 22 23
24 23 23 22 22 22 22 22 22 24 26 23 20 20 17 16 17 15 17 16 11 13 22 21 22 20 17 15 15 16 15 17 18 18 17 20 23 25
21 21 21 21 21 22 23 24 24 24 25 25 24 23 21 21 20 18 15 11 12 13 19 22 24 25 23 22 21 19 17 18 20 22 21 21 22 23
23 23 22 22 23 22 23 26 29 29 28 29 28 26 24 24 24 22 19 16 15 17 20 24 26 30 30 27 26 24 23 22 22 22 22 21 22 21
26 25 26 27 26 25 26 28 30 31 31 32 31 29 28 27 27 26 22 21 20 19 19 21 22 27 32 32 32 31 29 28 24 22 22 24 23 20
30 30 31 31 30 30 30 29 29 30 31 32 32 30 29 28 27 25 24 23 22 21 20 20 20 22 25 30 33 34 32 30 29 27 24 22 21 22
34 34 35 34 34 34 32 31 29 28 28 30 31 30 29 29 29 27 27 27 27 27 26 25 24 24 25 30 35 36 36 33 32 31 28 25 22 22
38 38 38 37 36 35 34 33 31 30 30 29 29 28 27 28 28 27 27 28 28 28 28 28 27 27 28 27 30 33 34 32 32 35 33 29 26 24
37 39 40 39 37 34 33 33 33 32 33 32 31 30 29 29 29 29 28 27 27 27 27 29 29 29 27 27 27 30 31 29 27 29 36 38 36 32
39 38 39 39 37 35 35 35 36 36 35 35 34 33 33 33 34 34 32 31 30 30 29 29 30 30 29 30 31 32 32 31 29 26 26 31 34 35
39 38 40 42 43 43 42 41 40 39 38 38 37 37 37 37 37 37 35 34 34 34 34 33 32 32 32 33 32 33 33 35 33 30 28 29 30 29
45 44 43 43 45 48 48 46 44 43 42 41 40 41 42 41 40 39 38 38 38 38 38 37 36 36 35 35 33 33 33 34 35 35 32 30 30 28
43 44 44 44 44 46 48 47 47 49 46 43 42 42 43 43 43 42 41 40 40 42 42 42 41 40 40 39 39 38 36 35 35 35 34 34 33 30
53 51 49 48 48 48 48 47 45 46 46 44 41 40 41 42 43 43 43 43 44 45 45 44 43 44 45 44 42 42 41 39 36 36 36 36 36 36
49 49 50 49 49 49 48 47 47 45 44 45 46 46 46 42 43 46 47 47 47 47 47 48 48 47 48 47 46 45 45 44 42 41 41 40 40 39
45 45 45 46 46 45 45 46 46 45 46 47 47 47 46 45 43 44 46 49 50 50 50 50 51 51 51 50 49 48 49 49 47 45 45 44 43 43
Wind_Direction
280 284 280 274 274 274 270 274 277 273 266 265 250 256 280 256 227 219 210 200 190 164 159 167 184 200 230 243 253 264 275 287 293 301 310 314 319 323
270 276 273 269 266 257 258 271 283 282 283 273 265 265 262 268 265 196 190 178 170 173 180 183 192 203 221 240 255 270 280 291 303 315 315 319 323 331
261 268 267 265 259 252 260 268 271 275 270 282 277 267 275 274 274 223 203 190 192 193 197 199 204 212 235 253 263 275 281 292 300 306 316 322 328 335
258 261 262 260 260 257 260 259 263 265 250 280 283 281 284 275 262 240 226 219 212 206 208 213 216 221 236 257 261 268 273 283 291 300 314 323 332 337
261 261 258 254 256 257 256 252 250 248 244 246 253 281 274 266 266 271 249 236 228 222 220 216 217 233 241 245 253 266 274 281 289 298 311 322 332 341
260 253 251 249 253 255 253 248 246 247 244 240 237 271 256 258 259 271 256 247 239 234 227 220 224 248 250 244 250 262 270 277 286 292 308 322 330 338
246 246 250 251 258 258 252 250 250 246 242 244 240 228 255 248 266 269 276 261 251 241 231 227 230 242 246 247 255 258 265 275 283 289 304 316 324 332
246 253 254 252 251 250 247 248 250 248 246 247 248 236 239 252 262 262 261 279 270 256 243 237 226 237 241 245 257 258 260 267 270 278 293 307 316 325
247 245 246 248 247 243 244 247 251 252 251 249 245 242 247 250 254 247 241 242 242 259 250 242 233 237 243 250 256 261 262 268 273 279 288 301 311 320
247 247 244 243 245 245 247 251 252 251 249 247 246 246 244 246 249 251 250 236 232 251 250 251 244 240 239 244 253 258 260 268 276 283 289 297 306 316
253 257 255 252 251 251 252 254 253 249 246 246 247 245 241 245 248 248 250 249 240 244 248 253 250 242 242 242 250 258 263 265 270 275 280 293 301 309
254 258 258 255 255 258 257 253 250 250 248 244 242 243 243 242 245 246 246 246 247 242 238 247 248 245 245 247 251 256 261 266 270 267 271 285 292 299
254 253 254 255 254 255 255 255 251 247 244 244 243 243 242 243 244 246 248 248 248 245 242 246 246 248 251 256 260 258 255 259 266 268 271 276 282 290
251 252 252 251 252 252 253 253 251 250 248 247 247 247 247 248 248 249 251 253 255 256 257 258 255 254 260 262 260 259 256 255 260 264 266 269 272 280
251 251 252 251 249 249 252 251 248 247 246 245 245 245 246 247 247 247 249 252 256 259 262 265 266 265 265 268 260 253 261 269 266 259 260 262 265 273
251 252 252 252 251 251 252 253 249 247 247 247 246 245 245 247 249 248 248 250 253 255 259 263 264 266 267 264 259 253 256 268 274 260 254 256 260 263
255 255 254 253 252 251 250 250 250 250 251 252 251 248 247 247 247 246 245 247 251 254 256 257 260 262 263 263 261 260 261 262 263 263 262 258 256 259
259 258 258 257 256 254 253 252 252 253 253 255 255 254 250 247 248 249 250 252 255 257 259 258 258 259 260 262 263 261 258 260 260 259 259 258 256 251
259 259 259 260 262 262 260 258 257 254 253 256 258 258 256 254 252 251 252 254 255 256 256 256 256 258 260 262 260 263 262 261 261 260 256 254 253 250
263 262 258 257 258 260 261 261 261 261 259 259 260 260 261 260 259 258 257 257 257 257 257 257 257 257 257 257 259 260 260 261 261 260 258 253 247 242
268 267 265 264 264 264 265 265 263 261 261 261 263 264 265 266 266 266 265 264 263 263 261 258 257 257 257 255 255 257 258 258 259 259 258 256 252 245
266 267 266 266 265 266 267 269 270 269 268 268 269 270 270 269 269 270 269 267 266 263 261 260 257 254 253 252 252 255 258 259 258 257 256 254 253 249
263 264 264 264 263 262 262 262 264 266 267 268 269 271 273 272 267 264 261 261 262 262 261 260 258 256 254 251 250 251 255 258 258 258 257 253 250 248
Height
5828 5828 5827 5826 5825 5826 5825 5824 5824 5824 5824 5822 5822 5822 5821 5819 5818 5817 5817 5816 5817 5817 5819 5823 5826 5827 5829 5830 5830 5830 5830 5829 5828 5827 5825 5823 5821 5817
5822 5822 5823 5823 5822 5822 5821 5820 5819 5820 5821 5819 5819 5819 5819 5818 5817 5815 5815 5815 5816 5817 5820 5823 5826 5827 5828 5829 5828 5828 5827 5826 5825 5824 5823 5820 5818 5814
5815 5816 5817 5819 5819 5818 5817 5815 5815 5816 5817 5816 5815 5816 5817 5817 5816 5815 5815 5815 5816 5817 5820 5823 5825 5826 5827 5827 5827 5826 5825 5824 5823 5822 5820 5817 5815 5811
5808 5809 5811 5812 5813 5813 5813 5812 5812 5812 5813 5811 5812 5812 5813 5813 5815 5815 5814 5814 5815 5817 5819 5821 5822 5822 5823 5824 5824 5824 5822 5821 5821 5819 5817 5814 5811 5807
5801 5803 5804 5806 5807 5808 5808 5808 5808 5808 5808 5807 5807 5808 5809 5810 5813 5814 5813 5812 5813 5815 5817 5819 5819 5819 5820 5820 5821 5821 5820 5819 5819 5817 5815 5812 5808 5804
5793 5796 5798 5798 5800 5802 5801 5803 5804 5804 5804 5805 5804 5805 5807 5806 5809 5810 5810 5810 5811 5813 5814 5815 5816 5817 5817 5817 5817 5818 5817 5817 5816 5814 5812 5809 5806 5802
5787 5790 5791 5792 5794 5795 5796 5797 5799 5800 5801 5801 5802 5801 5801 5803 5804 5804 5805 5807 5808 5810 5811 5812 5814 5815 5814 5814 5814 5815 5814 5814 5813 5812 5810 5807 5804 5800
5780 5782 5784 5785 5787 5789 5790 5791 5794 5795 5795 5797 5799 5797 5797 5797 5797 5798 5800 5801 5802 5804 5805 5807 5810 5811 5810 5810 5810 5811 5810 5810 5810 5809 5808 5805 5802 5798
5774 5774 5776 5778 5781 5782 5783 5784 5786 5788 5790 5791 5793 5793 5793 5795 5795 5794 5794 5794 5796 5798 5799 5803 5805 5805 5805 5806 5806 5807 5807 5806 5806 5806 5805 5802 5800 5797
5767 5769 5769 5770 5772 5775 5776 5777 5779 5780 5783 5785 5787 5788 5788 5790 5790 5790 5789 5789 5789 5792 5794 5797 5798 5798 5798 5801 5802 5802 5802 5802 5802 5802 5801 5800 5797 5795
5761 5762 5762 5764 5766 5767 5769 5770 5772 5774 5776 5778 5780 5781 5781 5782 5783 5784 5784 5783 5785 5787 5789 5791 5791 5792 5793 5795 5795 5796 5797 5796 5797 5796 5796 5796 5794 5792
5751 5752 5754 5755 5757 5758 5759 5762 5764 5766 5768 5771 5772 5773 5773 5774 5775 5777 5778 5778 5779 5780 5781 5782 5783 5785 5786 5788 5788 5789 5790 5790 5790 5791 5791 5791 5790 5789
5741 5742 5744 5745 5747 5748 5750 5751 5753 5755 5758 5761 5763 5765 5765 5767 5768 5769 5771 5772 5773 5774 5775 5775 5776 5777 5777 5778 5780 5781 5782 5784 5784 5784 5785 5786 5785 5784
5731 5731 5733 5735 5737 5739 5740 5742 5744 5745 5748 5751 5754 5755 5756 5759 5761 5762 5763 5764 5765 5766 5766 5767 5768 5769 5770 5769 5769 5770 5774 5776 5776 5777 5778 5779 5780 5779
5720 5721 5722 5725 5727 5729 5730 5732 5734 5736 5738 5740 5743 5745 5747 5750 5752 5753 5754 5756 5757 5758 5758 5758 5759 5760 5760 5760 5760 5762 5765 5766 5768 5768 5769 5771 5772 5773
5710 5712 5713 5715 5718 5719 5721 5723 5725 5727 5729 5731 5733 5735 5737 5740 5742 5744 5744 5746 5748 5749 5750 5750 5751 5752 5752 5753 5753 5755 5756 5757 5757 5758 5759 5760 5762 5765
5699 5702 5704 5705 5707 5707 5709 5711 5713 5715 5718 5721 5723 5725 5727 5728 5731 5732 5734 5735 5737 5738 5739 5741 5742 5743 5743 5744 5745 5746 5746 5748 5749 5749 5750 5750 5751 5754
5689 5690 5692 5693 5693 5694 5696 5699 5702 5704 5706 5708 5711 5713 5714 5716 5719 5720 5722 5723 5725 5727 5728 5729 5730 5732 5733 5734 5736 5737 5737 5738 5740 5741 5742 5743 5744 5745
5676 5678 5680 5680 5680 5681 5683 5686 5689 5691 5694 5696 5698 5699 5701 5703 5705 5707 5709 5711 5713 5715 5717 5719 5720 5721 5722 5724 5725 5726 5728 5728 5729 5731 5733 5735 5736 5738
5662 5664 5665 5666 5667 5668 5669 5672 5675 5678 5681 5684 5686 5687 5687 5689 5691 5693 5694 5697 5700 5702 5704 5705 5707 5709 5710 5711 5713 5715 5717 5717 5719 5721 5723 5726 5728 5729
5646 5649 5651 5653 5654 5656 5658 5659 5661 5664 5665 5666 5669 5672 5673 5674 5676 5678 5680 5681 5684 5687 5690 5692 5693 5695 5698 5699 5701 5702 5704 5706 5708 5710 5712 5714 5717 5719
5630 5631 5632 5636 5639 5642 5644 5645 5646 5648 5649 5649 5650 5653 5657 5660 5662 5663 5664 5665 5668 5671 5673 5675 5677 5679 5682 5685 5688 5691 5692 5693 5696 5697 5700 5703 5704 5706
5613 5613 5616 5619 5622 5626 5628 5630 5631 5633 5634 5634 5636 5638 5640 5643 5646 5649 5652 5650 5651 5653 5654 5657 5660 5663 5665 5668 5672 5675 5678 5680 5682 5685 5687 5689 5692 5693